轨道通信卫星FM22星 (ORBCOMM FM22)

导读 | 星芒AI

ORBCOMM FM22 是一颗由 ORBCOMM 公司运营的低轨(LEO)卫星,属于其全球物联网(IoT)通信网络的一部分。该卫星主要用于提供机器对机器(M2M)通信服务,支持远程设备的数据传输,广泛应用于物流、运输、资产管理等领域。FM22 运行在约 750 公里的轨道高度,采用 L 波段通信,具备低功耗、广覆盖的特点,能够在全球范围内实现可靠的双向数据通信。

基本信息
目录编号:
25476
目录名称:
ORBCOMM FM 22
国际标识:
1998-053B
轨道中心:
EARTH
卫星名称:
轨道通信卫星FM22星
卫星全名:
轨道通信卫星FM22星 (ORBCOMM FM22)
卫星状态:
在轨 (已飞行9998 天)
发射日期:
1998-09-23 UTC
国别 :
(ORB)
星等 :
--
轨道信息
数据来源 国际轨道数据 AOE轨道数据
星历时间 2026-02-06T07:52:23+0800
14小时前
查看轨道信息
2026-02-03T10:00:00+0800
3天前
查看轨道信息
半长轴 7139.434km 7139.462km
偏心率 0.0002703 0.0002694
轨道倾角 45.006° 45.006°
近地点辐角 327.923° 311.534°
升交点赤经 234.614° 248.441°
平近点角 32.146° 70.234°
近地点 759.367km 759.401km
远地点 763.227km 763.249km
周期 100.059分钟 100.059分钟
每日圈数 14.391535 14.391452
详细信息
固有亮度:
8
最大亮度:
6.9
平衡模式:
三轴稳定
覆盖范围:
全球
运营商:
轨道通信公司
运营商所在国:
美国
制造商(研发单位):
轨道ATK公司
制造商所在国:
美国
使用方式:
暂无
卫星简介
轨道通信FM(Orbcomm FM)是一系列低地球轨道通信卫星,由美国卫星通信公司 Orbcomm运营。 截至2015年12月,已有63颗此类卫星绕地球运行。该卫星已退役。
2D轨道图
3D轨道图
轨道高度分析图
轨道倾角分析图
轨道综合分析图
查看轨道综合分析图